Weather Roundup
Issued by NWS Springfield, MO

Home | Current Version | Previous Version | Text Only | Print | Product List | Glossary On
Versions: 1 2 3 4 5 6 7 8 9 10 11 12 13 14 15 16 17 18 19 20 21 22 23 24 25 26 27 28 29 30 31 32 33 34 35 36 37 38 39 40 41 42 43 44 45 46 47 48 49 50
098
NZUS99 KSGF 251307
HRRSGF

HOURLY WEATHER
NATIONAL WEATHER SERVICE SPRINGFIELD MO
800 AM CDT TUE JUL 25 2017

......SGF CWA......

CITY           SKY/WX    TMP DP  RH WIND       PRES   REMARKS
SPRINGFIELD    SUNNY     76  71  85 S3        30.09S
JOPLIN         SUNNY     80  75  84 S6        30.09R
WEST PLAINS    SUNNY     75  70  84 CALM      30.11R
ROLLA          SUNNY     72  69  90 E7        30.09S
OSAGE BEACH    SUNNY     72  68  87 NE5       30.10S
BRANSON        MOSUNNY   81  72  74 CALM      30.12R

......SURROUNDING SGF CWA......

CITY           SKY/WX    TMP DP  RH WIND       PRES   REMARKS
CHANUTE        SUNNY     77  73  87 SE5       30.07R
PARSONS        SUNNY     76  72  87 CALM      30.08R
COFFEYVILLE    SUNNY     77  72  84 S5        30.06R
EMPORIA        SUNNY     75  72  90 SE7       30.06R
GROVE OK       SUNNY     77  73  88 CALM      30.09R
ROGERS AR      SUNNY     79  73  82 SW5       30.12R
SILOAM SPRINGS SUNNY     75  70  83 S6        30.11R
HARRISON AR    SUNNY     79  72  79 NW3       30.12R
NEAR YELLVILLE SUNNY     79  70  73 CALM      30.07R

......KANSAS AND MISSOURI......

CITY           SKY/WX    TMP DP  RH WIND       PRES   REMARKS
KANSAS CTY INT MOSUNNY   76  67  73 SE10      30.07S
DOWNTOWN KC    SUNNY     77  67  71 SE5       30.07R
COLUMBIA       SUNNY     72  69  90 E9        30.10S
SEDALIA        SUNNY     72  71  97 SE7       30.11R
ST JOSEPH      SUNNY     75  69  81 S10       30.06R
ST LOUIS       MOSUNNY   76  66  71 E9        30.11R
SPIRIT OF STL  MOSUNNY   75  68  78 E8        30.09R
KIRKSVILLE     SUNNY     70  66  87 SE8       30.13R
WICHITA        MOSUNNY   77  71  82 S8        30.06R
TOPEKA         SUNNY     75  71  87 SE3       30.06R
OLATHE         SUNNY     73  68  84 SE8       30.08R

......TENNESSEE......

CITY           SKY/WX    TMP DP  RH WIND       PRES   REMARKS
MEMPHIS        SUNNY     81  76  84 VRB3      30.08S
NASHVILLE      MOSUNNY   82  76  81 CALM      30.11R

......ARKANSAS.......

CITY           SKY/WX    TMP DP  RH WIND       PRES   REMARKS
FAYETTEVILLE   SUNNY     72  72 100 S5        30.12R
FT SMITH       SUNNY     81  75  82 CALM      30.08R
LITTLE ROCK    MOSUNNY   79  77  94 SW6       30.09R

......OKLAHOMA.......

CITY           SKY/WX    TMP DP  RH WIND       PRES   REMARKS
TULSA          SUNNY     81  72  74 S8        30.05R
PONCA CITY     SUNNY     79  70  74 VRB7      30.05R
MCALESTER      MOSUNNY   79  74  84 SE5       30.08S
OKLAHOMA CITY  MOSUNNY   75  72  90 S10       30.08R

......IOWA............

CITY           SKY/WX    TMP DP  RH WIND       PRES   REMARKS
DES MOINES     MOSUNNY   71  66  84 SE12      30.09R
QUAD CITIES    SUNNY     66  61  84 E5        30.15R

......ILLINOIS........

CITY           SKY/WX    TMP DP  RH WIND       PRES   REMARKS
QUINCY         SUNNY     69  64  84 SE9       30.12S
CHICAGO        MOSUNNY   70  60  70 SE12      30.19R




USA.gov is the U.S. government's official web portal to all federal, state and local government web resources and services.